TimeMST,TemperatureF,Dew PointF,Humidity,Sea Level PressureIn,VisibilityMPH,Wind Direction,Wind SpeedMPH,Gust SpeedMPH,PrecipitationIn,Events,Conditions,WindDirDegrees,DateUTC
12:53 AM,23.0,14.0,68,30.19,10.0,ENE,3.5,-,N/A,,Clear,70,2012-11-29 07:53:00
1:53 AM,23.0,15.1,72,30.19,10.0,East,3.5,-,N/A,,Clear,100,2012-11-29 08:53:00
2:53 AM,25.0,16.0,69,30.17,10.0,ENE,5.8,-,N/A,,Clear,70,2012-11-29 09:53:00
3:53 AM,21.0,14.0,74,30.17,10.0,Calm,Calm,-,N/A,,Clear,0,2012-11-29 10:53:00
4:53 AM,23.0,15.1,72,30.20,10.0,Calm,Calm,-,N/A,,Clear,0,2012-11-29 11:53:00
5:53 AM,23.0,15.1,72,30.25,10.0,Calm,Calm,-,N/A,,Clear,0,2012-11-29 12:53:00
6:53 AM,21.9,15.1,75,30.29,10.0,Calm,Calm,-,N/A,,Clear,0,2012-11-29 13:53:00
7:53 AM,25.0,17.1,72,30.29,10.0,ENE,6.9,-,N/A,,Clear,70,2012-11-29 14:53:00
8:53 AM,37.9,21.9,53,30.27,10.0,Calm,Calm,-,N/A,,Clear,0,2012-11-29 15:53:00
9:53 AM,46.0,24.1,42,30.24,10.0,Calm,Calm,-,N/A,,Clear,0,2012-11-29 16:53:00
10:53 AM,51.1,23.0,33,30.24,10.0,Calm,Calm,-,N/A,,Clear,0,2012-11-29 17:53:00
11:53 AM,55.0,27.0,34,30.20,10.0,NW,13.8,-,N/A,,Clear,310,2012-11-29 18:53:00
12:53 PM,54.0,25.0,33,30.18,10.0,Variable,3.5,-,N/A,,Clear,0,2012-11-29 19:53:00
1:53 PM,55.9,26.1,32,30.17,10.0,Variable,5.8,-,N/A,,Clear,0,2012-11-29 20:53:00
2:53 PM,55.0,27.0,34,30.16,10.0,WNW,10.4,-,N/A,,Clear,300,2012-11-29 21:53:00
3:53 PM,54.0,28.0,37,30.19,10.0,WNW,9.2,-,N/A,,Clear,290,2012-11-29 22:53:00
4:53 PM,50.0,27.0,41,30.19,10.0,NNW,3.5,-,N/A,,Clear,340,2012-11-29 23:53:00
5:53 PM,37.9,24.1,57,30.23,10.0,ENE,4.6,-,N/A,,Clear,70,2012-11-30 00:53:00
6:53 PM,35.1,23.0,61,30.25,10.0,ENE,8.1,-,N/A,,Clear,60,2012-11-30 01:53:00
7:53 PM,32.0,21.9,66,30.26,10.0,ESE,3.5,-,N/A,,Clear,110,2012-11-30 02:53:00
8:53 PM,28.0,19.9,72,30.25,10.0,Calm,Calm,-,N/A,,Clear,0,2012-11-30 03:53:00
9:53 PM,28.0,19.9,72,30.22,10.0,East,5.8,-,N/A,,Clear,80,2012-11-30 04:53:00
10:53 PM,27.0,19.9,75,30.20,10.0,NE,3.5,-,N/A,,Clear,40,2012-11-30 05:53:00
11:53 PM,25.0,18.0,75,30.19,10.0,Calm,Calm,-,N/A,,Clear,0,2012-11-30 06:53:00